CST,Max TemperatureF,Mean TemperatureF,Min TemperatureF,Max Dew PointF,MeanDew PointF,Min DewpointF,Max Humidity, Mean Humidity, Min Humidity, Max Sea Level PressureIn, Mean Sea Level PressureIn, Min Sea Level PressureIn, Max VisibilityMiles, Mean VisibilityMiles, Min VisibilityMiles, Max Wind SpeedMPH, Mean Wind SpeedMPH, Max Gust SpeedMPH,PrecipitationIn, CloudCover, Events, WindDirDegrees
2012-12-1,77,62,46,62,53,46,100,74,47,30.26,30.21,30.16,10,7,0,12,5,26,0.00,2,Fog,93
2012-12-2,80,68,56,63,59,56,100,74,48,30.27,30.21,30.16,10,8,2,13,6,17,T,1,Rain,122
2012-12-3,80,68,55,64,59,55,100,74,48,30.20,30.16,30.11,10,8,0,21,9,36,0.00,4,Fog,134
2012-12-4,69,66,62,68,64,62,100,97,93,30.23,30.17,30.12,10,7,2,15,3,20,1.05,6,Rain-Thunderstorm,108
2012-12-5,63,62,60,63,60,59,100,97,93,30.15,30.10,30.04,10,6,1,10,5,16,0.44,8,Rain,16
2012-12-6,69,64,59,63,61,60,100,88,76,30.03,29.98,29.93,10,8,0,9,2,22,0.00,7,Fog,83
2012-12-7,75,65,54,63,58,50,100,72,44,29.99,29.94,29.88,10,5,0,8,2,10,0.00,4,Fog,123
2012-12-8,76,65,54,61,58,54,100,73,46,29.99,29.94,29.90,10,5,0,9,4,36,0.00,2,Fog,135
2012-12-9,79,67,54,70,63,53,100,81,62,29.99,29.93,29.88,10,9,4,20,7,24,0.01,5,Rain,155
2012-12-10,72,58,44,70,59,40,100,89,77,30.04,29.87,29.77,10,8,1,23,9,38,1.46,7,Rain-Thunderstorm,261
2012-12-11,49,43,37,40,34,30,89,72,54,30.19,30.12,30.03,10,10,10,9,4,14,0.00,0,,17
2012-12-12,58,46,33,34,27,15,92,56,19,30.32,30.26,30.20,10,10,10,12,3,16,0.00,0,,353
2012-12-13,63,47,30,37,31,27,92,61,30,30.38,30.31,30.26,10,10,9,10,2,17,0.00,0,,67
2012-12-14,68,50,32,53,44,32,100,76,52,30.30,30.20,30.08,10,10,8,14,6,18,0.00,1,,111
2012-12-15,76,66,55,63,59,52,93,81,68,30.08,30.00,29.95,10,10,10,17,7,21,0.00,7,,152
2012-12-16,76,69,61,65,61,59,100,85,69,29.95,29.87,29.81,10,9,2,20,8,26,0.56,8,Rain-Thunderstorm,150
2012-12-17,68,59,50,63,57,41,100,77,53,29.94,29.83,29.79,10,7,1,17,5,28,1.72,5,Rain,243
2012-12-18,71,56,40,47,43,39,100,67,33,30.03,29.98,29.93,10,10,10,20,4,15,0.00,0,,147
2012-12-19,77,62,46,70,58,45,100,77,53,30.01,29.92,29.81,10,10,4,21,10,26,0.02,3,Rain,150
2012-12-20,74,58,42,70,45,21,93,63,33,30.32,30.00,29.79,10,8,2,35,13,49,0.27,3,Rain,284
2012-12-21,58,46,34,32,20,10,82,49,16,30.47,30.39,30.33,10,10,10,14,5,18,0.00,0,,322
2012-12-22,64,47,30,37,29,20,92,56,19,30.43,30.34,30.23,10,9,6,8,2,12,0.00,0,,152
2012-12-23,67,57,46,60,50,38,84,75,66,30.22,30.08,29.96,10,10,10,16,7,21,T,6,,148
2012-12-24,78,67,55,65,60,53,100,73,46,29.96,29.90,29.84,10,10,7,17,7,22,0.03,4,Rain,237
2012-12-25,74,59,44,66,59,36,100,82,64,29.82,29.68,29.50,10,6,0,35,14,45,0.97,6,Fog-Rain-Thunderstorm,192
2012-12-26,47,42,37,36,33,29,82,73,64,30.18,30.06,29.84,10,10,10,22,9,30,0.00,7,,319
2012-12-27,52,43,34,45,35,30,89,74,59,30.21,30.11,30.01,10,10,9,13,7,15,0.00,6,,91
2012-12-28,68,57,46,66,57,41,100,90,80,30.02,29.82,29.70,10,6,1,28,11,176,1.57,8,Rain-Thunderstorm,229
2012-12-29,50,43,36,39,32,25,83,61,39,30.43,30.25,30.05,10,10,10,16,7,25,0.00,4,,326
2012-12-30,52,40,28,32,27,24,85,60,35,30.54,30.44,30.33,10,10,10,14,5,18,0.00,0,,65
2012-12-31,60,49,38,54,42,30,86,73,59,30.32,30.18,30.02,10,10,9,18,7,22,0.00,7,,100